Bullhead City, AZ

2:53 AM MST on August 17, 2017 (GMT -0700)
Laughlin-Bullhead International

Weather History for KIFP - December, 2012

Change the Weather History Date:

Monday, December 10, 2012

  Actual Average Record
Temperature  
Mean Temperature 54 °F -  
Max Temperature 60 °F 63 °F 73 °F (2014)
Min Temperature 48 °F 46 °F 31 °F (1990)
Degree Days  
Heating Degree Days 11    
Growing Degree Days 4 (Base 50)    
Moisture  
Dew Point 20 °F    
Average Humidity 27    
Maximum Humidity 35    
Minimum Humidity 20    
Precipitation  
Precipitation 0.00 in - - ()
Sea Level Pressure  
Sea Level Pressure 30.20 in    
Wind  
Wind Speed 18 mph (NNE)    
Max Wind Speed 28 mph    
Max Gust Speed 34 mph    
Visibility 10 miles    
Events      
Averages and records for this station are not official NWS values.
T = Trace of Precipitation, MM = Missing Value Source: NWS Daily Summary

Daily Weather History Graph

Daily Weather History Graph

Search for Another Location

Airport or City:

Trip Planner

Search our weather history database for the weather conditions in past years. The results will help you decide how hot, cold, wet, or windy it might be!

Date:

Astronomy

Dec. 10, 2012 Rise Set
Actual Time 7:36 AM MST 5:26 PM MST
Civil Twilight 7:08 AM MST 5:54 PM MST
Nautical Twilight 6:36 AM MST 6:26 PM MST
Astronomical Twilight 6:05 AM MST 6:57 PM MST
Moon 4:28 AM MST (12/10) 3:15 PM MST (12/10)
Length of Visible Light 10h 46m
Length of Day
9h 50m
Waning Crescent, 10% of the Moon is Illuminated
Dec 10
Waning Crescent
Dec 13
New
Dec 19
First Quarter
Dec 28
Full
Jan 4
Last Quarter

Hourly Weather History & Observations

Time (MST) Temp. Dew Point Humidity Pressure Visibility Wind Dir Wind Speed Gust Speed Precip Events Conditions
12:15 AM 53.6 °F 21.2 °F 28% 30.26 in 10.0 mi North 16.1 mph - N/A   Clear
12:55 AM 53.6 °F 19.4 °F 26% 30.26 in 10.0 mi North 20.7 mph 25.3 mph N/A   Clear
1:15 AM 53.6 °F 19.4 °F 26% 30.27 in 10.0 mi North 17.3 mph 26.5 mph N/A   Clear
1:35 AM 51.8 °F 21.2 °F 30% 30.27 in 10.0 mi North 19.6 mph 24.2 mph N/A   Clear
1:55 AM 51.8 °F 19.4 °F 28% 30.28 in 10.0 mi North 15.0 mph - N/A   Clear
2:15 AM 50.0 °F 21.2 °F 32% 30.29 in 10.0 mi NNE 15.0 mph - N/A   Clear
2:55 AM 50.0 °F 21.2 °F 32% 30.28 in 10.0 mi NNE 18.4 mph - N/A   Clear
3:15 AM 50.0 °F 21.2 °F 32% 30.28 in 10.0 mi NNE 18.4 mph - N/A   Clear
3:35 AM 50.0 °F 21.2 °F 32% 30.28 in 10.0 mi NNE 17.3 mph - N/A   Clear
3:55 AM 50.0 °F 21.2 °F 32% 30.28 in 10.0 mi North 18.4 mph - N/A   Clear
4:15 AM 48.2 °F 21.2 °F 34% 30.28 in 10.0 mi North 17.3 mph - N/A   Clear
4:55 AM 48.2 °F 21.2 °F 34% 30.27 in 10.0 mi North 15.0 mph - N/A   Clear
5:15 AM 48.2 °F 19.4 °F 32% 30.26 in 10.0 mi North 16.1 mph 20.7 mph N/A   Clear
5:35 AM 48.2 °F 19.4 °F 32% 30.25 in 10.0 mi North 19.6 mph - N/A   Clear
5:55 AM 48.2 °F 19.4 °F 32% 30.25 in 10.0 mi North 18.4 mph - N/A   Clear
6:15 AM 48.2 °F 19.4 °F 32% 30.25 in 10.0 mi North 19.6 mph 23.0 mph N/A   Clear
6:35 AM 48.2 °F 19.4 °F 32% 30.25 in 10.0 mi North 18.4 mph - N/A   Clear
6:55 AM 48.2 °F 19.4 °F 32% 30.26 in 10.0 mi North 20.7 mph - N/A   Clear
7:15 AM 48.2 °F 21.2 °F 34% 30.27 in 10.0 mi NNE 17.3 mph - N/A   Clear
7:35 AM 48.2 °F 21.2 °F 34% 30.28 in 10.0 mi NNE 18.4 mph - N/A   Clear
7:55 AM 48.2 °F 19.4 °F 32% 30.28 in 10.0 mi NNE 17.3 mph - N/A   Clear
8:35 AM 48.2 °F 19.4 °F 32% 30.27 in 10.0 mi North 18.4 mph 24.2 mph N/A   Clear
8:55 AM 48.2 °F 19.4 °F 32% 30.26 in 10.0 mi North 18.4 mph 27.6 mph N/A   Clear
9:15 AM 48.2 °F 21.2 °F 34% 30.27 in 10.0 mi North 15.0 mph 21.9 mph N/A   Clear
9:35 AM 50.0 °F 23.0 °F 35% 30.27 in 10.0 mi North 16.1 mph 20.7 mph N/A   Clear
9:55 AM 50.0 °F 19.4 °F 30% 30.27 in 10.0 mi North 19.6 mph 28.8 mph N/A   Clear
10:15 AM 50.0 °F 19.4 °F 30% 30.27 in 10.0 mi North 20.7 mph 31.1 mph N/A   Clear
10:35 AM 51.8 °F 21.2 °F 30% 30.28 in 10.0 mi North 20.7 mph 26.5 mph N/A   Clear
10:55 AM 53.6 °F 21.2 °F 28% 30.28 in 10.0 mi North 15.0 mph - N/A   Clear
11:15 AM 53.6 °F 21.2 °F 28% 30.27 in 10.0 mi North 20.7 mph 27.6 mph N/A   Clear
11:35 AM 55.4 °F 19.4 °F 25% 30.26 in 10.0 mi North 17.3 mph 25.3 mph N/A   Clear
11:55 AM 55.4 °F 19.4 °F 25% 30.25 in 10.0 mi North 19.6 mph 32.2 mph N/A   Clear
12:15 PM 57.2 °F 17.6 °F 21% 30.22 in 10.0 mi North 27.6 mph 34.5 mph N/A   Clear
12:35 PM 57.2 °F 19.4 °F 23% 30.22 in 10.0 mi North 23.0 mph 33.4 mph N/A   Clear
12:55 PM 57.2 °F 17.6 °F 21% 30.20 in 10.0 mi North 26.5 mph 31.1 mph N/A   Clear
1:15 PM 59.0 °F 17.6 °F 20% 30.18 in 10.0 mi North 25.3 mph 33.4 mph N/A   Clear
1:35 PM 59.0 °F 19.4 °F 22% 30.17 in 10.0 mi North 21.9 mph 25.3 mph N/A   Clear
1:55 PM 59.0 °F 19.4 °F 22% 30.16 in 10.0 mi North 23.0 mph 29.9 mph N/A   Clear
2:15 PM 59.0 °F 19.4 °F 22% 30.15 in 10.0 mi North 20.7 mph 28.8 mph N/A   Clear
2:35 PM 60.8 °F 19.4 °F 20% 30.14 in 10.0 mi North 21.9 mph 27.6 mph N/A   Clear
2:55 PM 60.8 °F 19.4 °F 20% 30.14 in 10.0 mi NNE 24.2 mph - N/A   Clear
3:15 PM 60.8 °F 19.4 °F 20% 30.14 in 10.0 mi NNE 20.7 mph 32.2 mph N/A   Clear
3:35 PM 60.8 °F 19.4 °F 20% 30.13 in 10.0 mi North 19.6 mph 24.2 mph N/A   Clear
3:55 PM 60.8 °F 21.2 °F 22% 30.12 in 10.0 mi North 20.7 mph 27.6 mph N/A   Clear
4:15 PM 60.8 °F 21.2 °F 22% 30.11 in 10.0 mi North 18.4 mph - N/A   Clear
4:35 PM 60.8 °F 23.0 °F 23% 30.11 in 10.0 mi North 18.4 mph - N/A   Clear
4:55 PM 60.8 °F 23.0 °F 23% 30.10 in 10.0 mi North 17.3 mph - N/A   Clear
5:15 PM 59.0 °F 23.0 °F 25% 30.11 in 10.0 mi North 16.1 mph 20.7 mph N/A   Clear
5:35 PM 59.0 °F 21.2 °F 23% 30.10 in 10.0 mi North 13.8 mph - N/A   Clear
5:55 PM 59.0 °F 21.2 °F 23% 30.10 in 10.0 mi North 16.1 mph - N/A   Clear
6:15 PM 59.0 °F 19.4 °F 22% 30.10 in 10.0 mi North 15.0 mph - N/A   Clear
6:35 PM 59.0 °F 19.4 °F 22% 30.10 in 10.0 mi NNE 13.8 mph - N/A   Clear
6:55 PM 57.2 °F 19.4 °F 23% 30.10 in 10.0 mi NNE 11.5 mph - N/A   Clear
7:15 PM 57.2 °F 19.4 °F 23% 30.11 in 10.0 mi NE 10.4 mph - N/A   Clear
7:35 PM 57.2 °F 19.4 °F 23% 30.10 in 10.0 mi NNE 11.5 mph - N/A   Clear
7:55 PM 55.4 °F 19.4 °F 25% 30.11 in 10.0 mi NE 10.4 mph - N/A   Clear
8:15 PM 55.4 °F 23.0 °F 29% 30.11 in 10.0 mi NE 12.7 mph - N/A   Clear
8:35 PM 55.4 °F 23.0 °F 29% 30.11 in 10.0 mi ENE 11.5 mph - N/A   Clear
8:55 PM 55.4 °F 23.0 °F 29% 30.10 in 10.0 mi NE 11.5 mph - N/A   Clear
9:15 PM 53.6 °F 21.2 °F 28% 30.10 in 10.0 mi ENE 12.7 mph - N/A   Clear
9:35 PM 53.6 °F 21.2 °F 28% 30.10 in 10.0 mi NE 11.5 mph - N/A   Clear
9:55 PM 55.4 °F 21.2 °F 26% 30.11 in 10.0 mi NE 11.5 mph - N/A   Clear
10:15 PM 55.4 °F 21.2 °F 26% 30.10 in 10.0 mi NE 10.4 mph - N/A   Clear
10:55 PM 53.6 °F 19.4 °F 26% 30.11 in 10.0 mi NE 11.5 mph - N/A   Clear
11:15 PM 53.6 °F 19.4 °F 26% 30.11 in 10.0 mi NNE 10.4 mph - N/A   Clear
11:55 PM 53.6 °F 19.4 °F 26% 30.11 in 10.0 mi NNE 9.2 mph - N/A   Clear